Wind_Speed
18 18 17 16 16 16 15 15 15 15 15 13 13 13 12 11 11 12 12 11 12 12 12 12 12 12 11 10 9 9 10 9 9 9 11 11 12 12 10 9 9 8
19 18 18 17 17 16 16 16 14 13 13 12 12 12 12 12 12 12 12 12 13 13 13 13 12 12 11 10 9 9 9 8 8 9 10 10 11 11 11 10 10 10
20 19 19 19 17 16 16 16 16 14 13 12 12 12 13 12 12 13 13 13 13 13 13 12 12 12 11 10 9 9 8 8 8 9 9 9 9 9 10 10 10 10
21 20 20 18 17 15 15 16 16 15 14 13 13 13 13 13 13 13 13 14 14 13 13 12 11 12 10 10 10 9 9 9 9 9 9 8 8 8 9 10 10 11
22 21 20 18 16 15 15 16 16 16 15 15 14 13 14 14 14 14 13 14 14 14 13 12 11 11 10 11 11 10 10 10 10 9 9 8 8 8 9 9 10 11
22 22 20 18 17 16 16 16 16 15 15 16 16 15 15 15 15 14 13 13 14 15 13 12 11 11 12 11 11 11 11 10 10 10 10 9 8 9 9 9 10 10
22 22 21 19 18 17 16 16 16 15 15 16 16 15 15 15 15 15 14 13 13 13 13 12 12 12 13 12 12 12 12 11 11 11 11 10 9 10 9 9 10 10
22 22 21 20 18 17 17 16 16 16 15 15 16 15 15 15 15 14 14 13 13 13 13 13 13 13 13 14 13 12 12 12 12 12 11 10 9 9 9 9 10 10
23 22 21 20 19 19 18 17 17 16 15 15 15 15 15 15 15 14 13 13 13 13 13 14 13 13 13 14 13 12 12 12 12 12 11 10 10 10 9 9 9 9
23 23 22 21 21 20 18 17 17 16 16 16 15 15 15 15 15 14 13 13 14 14 14 14 14 13 13 13 13 12 12 12 13 13 12 11 11 11 10 9 8 8
23 23 23 22 21 21 19 18 18 17 16 16 15 15 15 15 14 14 13 14 14 14 14 14 14 13 13 13 12 12 12 12 12 12 11 11 11 10 10 9 8 7
24 24 23 22 22 21 20 19 19 18 17 17 16 15 16 15 15 14 14 14 14 14 13 13 13 13 13 13 12 11 11 11 12 12 11 11 10 10 10 9 8 6
25 24 23 22 22 21 20 19 19 19 18 18 17 17 16 16 15 15 15 14 14 13 13 11 10 11 13 13 13 12 11 11 12 12 12 11 11 10 10 9 8 6
25 25 24 22 22 21 20 19 19 20 19 18 18 18 17 16 15 15 15 14 14 14 14 12 10 11 12 13 13 13 13 13 13 13 14 13 12 11 10 9 9 8
25 25 24 23 22 21 20 20 20 20 20 19 19 18 17 16 15 15 15 15 14 14 15 14 13 13 13 13 14 14 14 14 14 14 15 15 14 12 11 11 11 11
25 25 24 24 23 20 19 20 20 20 20 19 18 18 17 17 17 17 16 16 16 15 15 15 15 15 14 14 14 15 15 15 14 14 14 15 14 13 12 12 13 14
24 22 21 22 22 20 19 19 19 20 21 19 18 18 17 17 18 18 18 18 17 17 16 16 16 16 16 15 16 16 16 15 15 15 15 15 15 15 14 14 14 15
22 19 18 19 19 19 19 19 18 20 21 21 20 19 19 19 19 20 20 19 19 19 19 18 18 17 17 17 17 17 17 16 15 15 16 16 16 16 16 16 16 16
21 20 20 20 20 20 20 20 20 20 21 22 22 21 21 21 22 22 22 21 21 21 21 20 19 18 18 18 18 17 17 17 16 16 17 17 17 17 17 17 18 18
23 23 24 24 24 23 22 22 22 22 22 23 23 23 24 23 23 23 24 24 23 23 22 21 20 19 20 20 19 19 18 18 17 17 18 19 19 18 18 19 19 20
27 26 26 26 26 25 23 23 24 24 24 24 24 24 25 24 24 24 25 25 26 25 24 23 22 22 22 22 22 21 20 19 19 19 20 21 21 21 21 21 21 21
28 29 29 28 27 26 25 25 26 26 26 26 26 24 23 24 25 25 25 26 27 28 27 26 26 25 24 24 23 22 21 21 21 22 22 23 24 24 24 24 24 25
28 31 33 32 29 27 26 26 27 28 28 28 28 26 24 23 24 25 26 26 27 29 30 29 28 28 27 26 25 24 23 23 23 23 24 24 25 25 25 25 26 27
29 31 34 34 32 29 28 28 29 29 29 29 28 28 27 26 25 24 24 26 27 29 30 30 30 29 28 28 27 26 26 25 25 26 26 26 26 26 26 26 26 28
31 31 32 32 30 29 30 31 30 28 29 29 29 29 29 29 29 26 24 25 27 28 28 29 29 29 29 29 28 28 28 28 28 28 28 28 28 27 27 27 27 28
30 32 31 29 27 27 28 28 28 27 28 31 31 30 30 29 29 29 28 27 28 29 29 28 29 30 30 30 30 30 30 30 30 30 30 28 27 27 27 27 27 28
Wind_Direction
214 215 218 221 222 223 225 224 219 214 214 218 223 225 224 220 217 216 218 222 225 224 222 221 225 229 232 237 237 230 228 226 225 229 232 235 238 238 240 244 242 236
216 218 220 220 220 222 225 228 227 223 221 224 226 229 229 223 220 222 222 223 227 227 225 226 229 230 230 235 239 234 228 227 231 235 236 237 237 236 238 242 245 245
219 221 222 221 219 219 222 227 230 230 230 229 227 229 230 226 224 226 225 224 228 229 227 228 231 232 229 231 238 240 234 231 234 237 239 241 237 236 238 240 243 247
219 222 224 223 221 221 224 227 229 230 230 228 227 229 229 228 227 227 226 225 228 229 227 225 228 230 230 231 238 241 236 233 235 239 242 241 239 239 241 240 241 244
218 220 223 223 224 226 228 229 230 229 228 227 227 228 228 227 226 226 227 226 227 230 229 226 228 231 234 236 240 241 239 236 237 242 243 238 238 242 241 241 241 241
218 220 222 223 225 227 229 230 231 230 228 226 226 227 226 226 227 227 229 229 229 231 231 231 233 235 238 242 244 244 243 241 241 246 247 242 243 247 247 248 246 246
218 219 221 222 223 226 227 229 230 230 228 226 226 226 225 226 228 228 229 232 232 231 232 234 236 238 241 245 247 246 242 241 242 247 249 250 253 257 259 260 257 253
218 220 221 221 221 223 224 225 227 228 227 226 225 224 224 227 230 230 231 233 234 234 234 235 235 237 240 244 246 245 243 241 241 245 249 253 255 256 257 259 261 261
218 219 221 221 221 221 222 222 223 225 226 225 224 224 223 225 228 230 233 236 237 237 237 237 237 236 237 240 242 243 243 242 242 246 249 249 247 244 244 251 258 261
218 219 221 222 222 222 222 223 222 223 224 225 225 226 225 225 227 230 231 234 236 237 239 241 239 236 236 239 239 238 240 242 243 246 247 246 246 247 250 254 257 259
219 219 221 223 224 224 225 226 224 223 223 224 226 226 225 226 228 230 230 229 231 235 240 243 241 237 236 238 238 237 239 242 243 244 246 246 248 252 254 256 261 264
219 220 222 224 226 227 229 229 228 226 225 225 227 225 224 224 226 230 231 230 232 232 233 238 240 238 235 234 234 234 238 242 241 241 245 246 248 250 249 251 258 254
220 221 222 223 225 228 232 232 230 228 227 227 228 225 223 224 227 230 231 232 234 230 225 227 233 237 237 234 232 233 238 241 241 240 240 242 247 250 252 251 245 225
221 220 221 223 225 227 230 232 230 228 228 228 227 225 225 228 231 233 232 232 232 229 224 223 228 235 238 237 236 237 240 244 246 244 240 239 243 248 251 246 231 218
224 223 222 223 224 224 227 229 228 228 228 227 227 228 229 231 235 235 234 233 233 230 227 226 231 237 241 243 245 244 246 248 250 249 245 241 242 245 245 239 231 230
226 226 225 224 224 224 226 227 227 228 226 226 229 231 229 229 234 237 236 236 236 236 234 232 234 240 245 249 251 248 247 248 248 249 249 247 246 248 248 243 239 238
222 223 225 226 227 227 226 224 223 224 223 223 227 229 229 231 235 238 239 239 241 241 242 241 242 244 247 249 251 249 245 244 246 247 247 247 249 248 248 248 247 246
213 215 221 226 228 228 226 221 218 220 223 225 229 232 237 241 242 242 242 243 244 246 246 246 246 247 248 247 248 247 244 244 246 246 246 245 245 246 244 245 248 252
213 215 220 224 225 224 223 220 219 224 228 231 233 237 243 248 248 246 245 245 247 248 248 247 246 246 245 243 243 244 244 244 246 247 246 243 241 243 243 242 245 251
220 221 223 226 226 223 222 222 224 229 234 235 237 240 244 247 249 248 247 247 247 247 246 244 243 243 241 241 242 243 243 245 248 250 248 244 241 242 244 244 247 251
227 228 228 228 228 227 226 226 229 234 238 240 241 243 246 248 250 251 250 248 246 245 243 241 241 243 244 244 245 245 245 247 250 252 251 248 245 245 246 249 251 253
233 233 233 230 229 230 231 232 235 237 240 244 246 248 250 252 253 254 254 250 246 243 241 242 243 244 246 248 249 249 249 250 251 253 253 251 249 249 250 252 255 256
236 235 235 233 230 230 232 236 238 239 241 244 247 250 252 252 252 253 254 253 248 243 242 243 245 245 246 248 249 249 251 251 252 253 254 253 253 253 253 256 258 258
239 237 236 234 230 230 232 235 237 239 241 242 243 247 248 248 247 246 248 250 247 243 242 243 243 243 244 246 249 250 251 251 251 252 253 254 255 256 257 258 259 259
238 239 240 237 232 231 232 233 235 239 243 243 243 244 247 249 248 245 244 245 244 241 240 240 241 242 244 246 249 251 252 253 253 253 253 254 255 256 257 257 258 259
236 239 241 239 233 230 232 236 242 247 249 248 247 246 247 248 249 248 247 246 245 244 243 243 243 244 245 247 249 251 253 254 253 252 252 251 250 251 253 254 254 255
Height
1584 1586 1587 1589 1590 1591 1592 1593 1594 1595 1596 1597 1598 1599 1600 1601 1602 1602 1603 1603 1604 1604 1605 1606 1606 1607 1607 1607 1608 1608 1608 1608 1608 1609 1609 1609 1609 1609 1609 1609 1609 1609
1584 1585 1586 1588 1589 1590 1591 1592 1594 1595 1596 1597 1598 1599 1600 1601 1601 1602 1602 1603 1603 1604 1605 1605 1606 1606 1606 1607 1607 1608 1608 1608 1608 1608 1608 1608 1608 1608 1608 1608 1608 1609
1583 1584 1585 1587 1588 1589 1590 1591 1593 1594 1595 1596 1597 1598 1599 1600 1601 1601 1602 1602 1603 1604 1604 1605 1605 1606 1606 1606 1606 1607 1607 1607 1607 1607 1607 1607 1607 1607 1607 1607 1608 1608
1582 1583 1584 1586 1587 1588 1590 1591 1592 1593 1594 1595 1596 1597 1598 1599 1600 1600 1601 1602 1602 1603 1604 1604 1605 1605 1605 1605 1606 1606 1606 1606 1607 1607 1607 1607 1607 1607 1607 1607 1607 1607
1581 1582 1584 1585 1586 1588 1589 1589 1591 1592 1593 1594 1595 1596 1597 1598 1599 1599 1600 1601 1601 1602 1603 1603 1604 1604 1605 1605 1605 1605 1605 1606 1606 1606 1606 1606 1606 1606 1606 1606 1606 1606
1580 1581 1582 1584 1585 1587 1588 1588 1590 1591 1591 1593 1594 1595 1596 1596 1597 1598 1599 1600 1601 1601 1602 1602 1603 1603 1604 1604 1604 1605 1605 1605 1605 1605 1606 1606 1606 1606 1605 1605 1605 1605
1579 1580 1581 1583 1584 1585 1586 1587 1588 1589 1590 1592 1592 1594 1594 1595 1596 1597 1598 1599 1600 1600 1601 1601 1602 1602 1603 1603 1603 1603 1604 1604 1604 1604 1605 1605 1605 1605 1605 1605 1604 1604
1577 1579 1580 1581 1583 1584 1585 1586 1587 1588 1589 1590 1591 1592 1593 1594 1595 1595 1596 1597 1598 1599 1599 1600 1600 1601 1601 1602 1602 1602 1603 1603 1603 1603 1604 1604 1604 1604 1604 1604 1603 1603
1576 1577 1579 1580 1581 1582 1583 1585 1586 1587 1588 1589 1589 1591 1592 1592 1593 1594 1595 1596 1596 1597 1598 1598 1599 1600 1600 1600 1601 1601 1601 1602 1602 1602 1602 1603 1603 1603 1603 1602 1602 1602
1574 1576 1577 1578 1579 1581 1582 1583 1584 1585 1586 1587 1588 1589 1590 1591 1592 1592 1593 1594 1595 1595 1596 1597 1597 1598 1599 1599 1600 1600 1600 1600 1601 1601 1601 1601 1601 1602 1602 1601 1601 1601
1573 1574 1575 1576 1577 1579 1580 1582 1583 1584 1585 1586 1587 1587 1588 1589 1590 1591 1591 1592 1593 1594 1594 1595 1596 1597 1597 1598 1599 1599 1599 1599 1600 1600 1600 1600 1600 1600 1600 1600 1600 1600
1570 1572 1573 1574 1576 1577 1579 1580 1581 1582 1583 1584 1585 1586 1587 1588 1588 1589 1590 1591 1591 1592 1593 1594 1595 1595 1596 1597 1597 1598 1598 1598 1599 1599 1599 1599 1599 1599 1599 1599 1599 1599
1568 1570 1571 1572 1574 1575 1577 1578 1580 1581 1582 1583 1584 1585 1586 1586 1587 1588 1588 1589 1590 1591 1591 1592 1593 1594 1595 1595 1596 1596 1597 1597 1597 1597 1598 1598 1598 1598 1598 1598 1598 1598
1566 1568 1569 1571 1572 1573 1575 1576 1578 1579 1580 1581 1583 1583 1584 1585 1586 1587 1587 1588 1589 1589 1590 1591 1592 1592 1593 1593 1594 1595 1595 1595 1596 1596 1596 1597 1597 1597 1597 1597 1597 1597
1565 1566 1567 1569 1570 1571 1573 1574 1576 1577 1578 1580 1581 1582 1583 1584 1585 1586 1586 1587 1587 1588 1589 1589 1590 1590 1591 1592 1592 1593 1593 1594 1594 1595 1595 1595 1596 1596 1596 1596 1596 1596
1563 1565 1566 1568 1569 1570 1571 1572 1574 1575 1577 1578 1579 1580 1582 1582 1583 1584 1585 1585 1586 1587 1587 1588 1588 1589 1590 1590 1591 1591 1592 1592 1593 1593 1593 1594 1594 1594 1595 1595 1595 1595
1562 1563 1565 1566 1568 1569 1570 1571 1572 1574 1575 1576 1577 1579 1580 1581 1582 1582 1583 1584 1584 1585 1586 1586 1587 1587 1588 1589 1589 1590 1590 1591 1591 1591 1592 1592 1592 1593 1593 1593 1593 1593
1561 1562 1563 1565 1566 1567 1568 1570 1571 1572 1573 1575 1576 1577 1578 1579 1580 1581 1581 1582 1583 1584 1584 1585 1585 1586 1586 1587 1587 1588 1589 1589 1589 1590 1590 1590 1591 1591 1591 1592 1592 1592
1559 1560 1561 1563 1564 1565 1566 1568 1569 1570 1572 1573 1574 1575 1576 1577 1578 1579 1580 1580 1581 1582 1582 1583 1583 1584 1584 1585 1585 1586 1587 1587 1587 1588 1588 1588 1589 1589 1589 1589 1590 1590
1558 1559 1560 1561 1562 1563 1565 1566 1567 1568 1569 1570 1571 1573 1574 1575 1576 1576 1577 1578 1579 1580 1580 1581 1581 1582 1582 1583 1583 1584 1584 1585 1585 1586 1586 1586 1587 1587 1587 1587 1587 1587
1558 1559 1559 1560 1561 1562 1563 1564 1565 1566 1567 1568 1569 1570 1572 1573 1574 1574 1575 1576 1577 1577 1578 1579 1579 1580 1580 1581 1581 1582 1582 1583 1583 1583 1584 1584 1584 1584 1584 1584 1585 1585
1557 1558 1558 1559 1559 1560 1561 1562 1562 1563 1565 1566 1567 1568 1570 1571 1572 1573 1573 1574 1575 1575 1576 1576 1577 1578 1578 1578 1579 1579 1580 1580 1580 1581 1581 1581 1581 1582 1582 1582 1582 1582
1555 1555 1556 1556 1557 1558 1559 1560 1560 1561 1562 1564 1565 1566 1568 1569 1570 1571 1572 1573 1573 1573 1574 1574 1575 1575 1576 1576 1577 1577 1577 1577 1578 1578 1578 1578 1578 1579 1579 1579 1580 1580
1552 1552 1552 1552 1553 1555 1556 1556 1557 1559 1560 1561 1563 1564 1565 1566 1568 1569 1571 1571 1571 1572 1572 1572 1573 1573 1574 1574 1574 1574 1574 1574 1575 1575 1575 1575 1575 1576 1576 1577 1577 1577
1549 1550 1551 1550 1550 1550 1551 1552 1555 1558 1559 1559 1560 1561 1562 1563 1565 1568 1569 1569 1569 1570 1570 1571 1571 1571 1571 1571 1571 1572 1572 1572 1572 1572 1572 1572 1572 1573 1573 1573 1574 1574
1548 1549 1549 1548 1547 1546 1547 1550 1553 1555 1556 1557 1557 1558 1560 1560 1561 1563 1566 1567 1568 1568 1568 1568 1569 1568 1568 1569 1569 1569 1569 1568 1568 1568 1568 1568 1569 1570 1570 1570 1570 1570